DCLBH EDLI-ESMC

Flight info

Callsign DCLBH
Flight time 1h 14m
Altitude 41000
Route ZEPHE M170 BASUM Y850 MUBZI M105 AMRAK P999 ALS T153 TUDLO DCT IRBEV
Aircraft PC24/M-SBDGIRWY/LB2

Departure

Time 2026-05-07 13:54
Airport Bielefeld Airport (EDLI)

Arrival

Time 2026-05-07 15:09
Airport Ränneslätt Airfield (ESMC)
Time Latitude Longitude Altitude Speed Heading
2026-05-07 13:47 51.96539 8.54969 457 ft 0 kts 252°
2026-05-07 13:50 51.96541 8.54977 458 ft 0 kts 252°
2026-05-07 13:51 51.96540 8.54975 457 ft 0 kts 251°
2026-05-07 13:51 51.96540 8.54974 457 ft 1 kts 253°
2026-05-07 13:51 51.96542 8.54959 457 ft 2 kts 275°
2026-05-07 13:52 51.96521 8.54919 457 ft 8 kts 172°
2026-05-07 13:52 51.96444 8.55002 457 ft 17 kts 148°
2026-05-07 13:52 51.96362 8.55034 459 ft 7 kts 152°
2026-05-07 13:52 51.96337 8.55100 460 ft 15 kts 111°
2026-05-07 13:53 51.96293 8.55231 459 ft 3 kts 44°
2026-05-07 13:53 51.96318 8.55176 460 ft 27 kts 295°
2026-05-07 13:53 51.96468 8.54508 457 ft 96 kts 289°
2026-05-07 13:53 51.96777 8.53207 588 ft 144 kts 293°
2026-05-07 13:54 51.97072 8.51982 1022 ft 165 kts 294°
2026-05-07 13:54 51.97273 8.51223 1392 ft 169 kts 295°
2026-05-07 13:54 51.97860 8.49769 2376 ft 165 kts 330°
2026-05-07 13:54 51.98578 8.49462 3011 ft 161 kts
2026-05-07 13:55 51.99753 8.49704 3674 ft 182 kts 12°
2026-05-07 13:55 52.01012 8.50065 4371 ft 199 kts 10°
2026-05-07 13:55 52.02386 8.50366 5455 ft 201 kts
2026-05-07 13:55 52.03791 8.50639 6483 ft 207 kts
2026-05-07 13:56 52.05300 8.50923 7057 ft 233 kts
2026-05-07 13:56 52.06865 8.51221 8314 ft 214 kts
2026-05-07 13:56 52.08340 8.51500 9391 ft 218 kts
2026-05-07 13:56 52.09881 8.51796 10229 ft 225 kts
2026-05-07 13:57 52.11429 8.52094 11115 ft 228 kts
2026-05-07 13:57 52.13014 8.52397 12038 ft 231 kts
2026-05-07 13:57 52.14617 8.52705 12974 ft 233 kts
2026-05-07 13:57 52.16245 8.53017 13891 ft 237 kts
2026-05-07 13:58 52.17899 8.53335 14710 ft 242 kts
2026-05-07 13:58 52.19576 8.53657 15571 ft 245 kts
2026-05-07 13:58 52.21283 8.53984 16412 ft 249 kts
2026-05-07 13:58 52.23012 8.54318 17207 ft 254 kts
2026-05-07 13:59 52.23807 8.54471 17574 ft 256 kts
2026-05-07 13:59 52.24437 8.54593 17871 ft 258 kts
2026-05-07 13:59 52.25647 8.54826 18424 ft 260 kts
2026-05-07 13:59 52.27186 8.55123 19032 ft 264 kts
2026-05-07 14:00 52.29023 8.55477 19738 ft 268 kts
2026-05-07 14:00 52.30885 8.55837 20446 ft 271 kts
2026-05-07 14:00 52.32777 8.56204 21141 ft 276 kts
2026-05-07 14:00 52.34694 8.56574 21842 ft 280 kts
2026-05-07 14:01 52.36639 8.56950 22536 ft 283 kts
2026-05-07 14:01 52.38610 8.57334 23234 ft 287 kts
2026-05-07 14:01 52.40607 8.57721 23851 ft 291 kts
2026-05-07 14:01 52.42622 8.58112 24426 ft 293 kts
2026-05-07 14:02 52.44654 8.58508 25012 ft 295 kts
2026-05-07 14:02 52.46699 8.58906 25581 ft 297 kts
2026-05-07 14:02 52.48765 8.59308 26120 ft 300 kts
2026-05-07 14:02 52.50848 8.59714 26688 ft 302 kts
2026-05-07 14:03 52.52936 8.60123 27252 ft 303 kts
2026-05-07 14:03 52.55042 8.60533 27767 ft 306 kts
2026-05-07 14:03 52.57145 8.61163 28235 ft 310 kts 19°
2026-05-07 14:03 52.59059 8.62715 28801 ft 311 kts 27°
2026-05-07 14:04 52.60966 8.64411 29267 ft 314 kts 27°
2026-05-07 14:04 52.62894 8.66130 29763 ft 316 kts 27°
2026-05-07 14:04 52.64829 8.67849 30255 ft 317 kts 27°
2026-05-07 14:04 52.66780 8.69576 30631 ft 319 kts 27°
2026-05-07 14:05 52.68739 8.71313 31054 ft 320 kts 27°
2026-05-07 14:05 52.70707 8.73066 31426 ft 323 kts 27°
2026-05-07 14:05 52.72690 8.74831 31801 ft 325 kts 27°
2026-05-07 14:05 52.74680 8.76605 32187 ft 326 kts 27°
2026-05-07 14:06 52.76704 8.78296 32522 ft 326 kts 18°
2026-05-07 14:06 52.78933 8.78863 32912 ft 324 kts
2026-05-07 14:06 52.81198 8.78881 33216 ft 327 kts 359°
2026-05-07 14:06 52.83482 8.78813 33567 ft 328 kts 358°
2026-05-07 14:07 52.85770 8.78774 33948 ft 329 kts 359°
2026-05-07 14:07 52.88063 8.78773 34218 ft 331 kts 359°
2026-05-07 14:07 52.90384 8.78766 34441 ft 335 kts 359°
2026-05-07 14:07 52.92718 8.78745 34688 ft 337 kts 359°
2026-05-07 14:08 52.95076 8.78724 34893 ft 341 kts 359°
2026-05-07 14:08 52.97319 8.78900 35076 ft 344 kts
2026-05-07 14:08 52.99647 8.79473 35345 ft 345 kts
2026-05-07 14:08 53.02030 8.80021 35609 ft 346 kts
2026-05-07 14:09 53.04422 8.80545 35884 ft 347 kts
2026-05-07 14:09 53.06819 8.81085 36166 ft 348 kts
2026-05-07 14:09 53.09227 8.81638 36399 ft 351 kts
2026-05-07 14:09 53.11650 8.82193 36697 ft 351 kts
2026-05-07 14:10 53.14065 8.82743 36979 ft 352 kts
2026-05-07 14:10 53.16499 8.83294 37229 ft 353 kts
2026-05-07 14:10 53.18936 8.83852 37532 ft 353 kts
2026-05-07 14:10 53.21370 8.84411 37822 ft 354 kts
2026-05-07 14:11 53.23818 8.84970 38080 ft 355 kts
2026-05-07 14:11 53.26267 8.85530 38371 ft 356 kts
2026-05-07 14:11 53.28720 8.86094 38657 ft 356 kts
2026-05-07 14:11 53.31181 8.86660 38880 ft 357 kts
2026-05-07 14:12 53.33638 8.87226 39110 ft 357 kts
2026-05-07 14:12 53.36022 8.88369 39303 ft 358 kts 23°
2026-05-07 14:12 53.38307 8.90033 39526 ft 358 kts 22°
2026-05-07 14:12 53.40612 8.91652 39741 ft 359 kts 22°
2026-05-07 14:13 53.42914 8.93271 39966 ft 359 kts 22°
2026-05-07 14:13 53.45215 8.94910 40181 ft 360 kts 22°
2026-05-07 14:13 53.47522 8.96556 40396 ft 360 kts 22°
2026-05-07 14:13 53.49829 8.98200 40613 ft 360 kts 22°
2026-05-07 14:14 53.52138 8.99843 40832 ft 361 kts 22°
2026-05-07 14:14 53.54366 9.01662 41000 ft 362 kts 34°
2026-05-07 14:14 53.56422 9.04150 41062 ft 367 kts 35°
2026-05-07 14:15 53.60668 9.09208 41075 ft 381 kts 35°
2026-05-07 14:15 53.65058 9.14472 41087 ft 393 kts 35°
2026-05-07 14:16 53.69582 9.19904 41087 ft 404 kts 35°
2026-05-07 14:16 53.74213 9.25481 41080 ft 414 kts 35°
2026-05-07 14:17 53.78945 9.31196 41072 ft 422 kts 35°
2026-05-07 14:17 53.83989 9.36260 41083 ft 422 kts 24°
2026-05-07 14:18 53.89283 9.40533 41080 ft 421 kts 25°
2026-05-07 14:18 53.94542 9.44859 41071 ft 419 kts 25°
2026-05-07 14:19 53.99790 9.49124 41073 ft 416 kts 22°
2026-05-07 14:19 54.02563 9.50411 41085 ft 413 kts
2026-05-07 14:19 54.05395 9.51298 41084 ft 415 kts
2026-05-07 14:20 54.11090 9.53132 41082 ft 418 kts
2026-05-07 14:20 54.16822 9.54979 41086 ft 419 kts
2026-05-07 14:21 54.22549 9.56835 41081 ft 418 kts
2026-05-07 14:21 54.28246 9.58694 41077 ft 416 kts
2026-05-07 14:22 54.33892 9.60539 41074 ft 415 kts
2026-05-07 14:22 54.39557 9.62394 41104 ft 414 kts
2026-05-07 14:23 54.45220 9.64236 41103 ft 415 kts
2026-05-07 14:23 54.50896 9.66095 41106 ft 416 kts
2026-05-07 14:24 54.56587 9.67927 41107 ft 416 kts
2026-05-07 14:24 54.62292 9.69716 41119 ft 417 kts
2026-05-07 14:25 54.68020 9.71345 41107 ft 417 kts
2026-05-07 14:25 54.73771 9.72829 41110 ft 418 kts
2026-05-07 14:26 54.79528 9.74304 41116 ft 418 kts
2026-05-07 14:26 54.82311 9.75752 41099 ft 421 kts 28°
2026-05-07 14:26 54.84580 9.78941 41144 ft 422 kts 51°
2026-05-07 14:26 54.86119 9.83258 41145 ft 422 kts 65°
2026-05-07 14:27 54.87285 9.87930 41140 ft 422 kts 69°
2026-05-07 14:27 54.89186 9.95732 41136 ft 423 kts 63°
2026-05-07 14:27 54.90739 10.00048 41116 ft 423 kts 47°
2026-05-07 14:28 54.92850 10.03586 41140 ft 422 kts 41°
2026-05-07 14:28 54.97097 10.10643 41129 ft 423 kts 46°
2026-05-07 14:29 55.01183 10.18025 41123 ft 424 kts 44°
2026-05-07 14:29 55.05372 10.25274 41125 ft 424 kts 45°
2026-05-07 14:30 55.09495 10.32608 41115 ft 423 kts 45°
2026-05-07 14:30 55.13629 10.39897 41112 ft 422 kts 45°
2026-05-07 14:31 55.17739 10.47205 41109 ft 421 kts 45°
2026-05-07 14:31 55.21836 10.54498 41107 ft 420 kts 45°
2026-05-07 14:32 55.25917 10.61790 41105 ft 418 kts 45°
2026-05-07 14:32 55.30181 10.68700 41109 ft 418 kts 39°
2026-05-07 14:33 55.34644 10.75328 41118 ft 422 kts 40°
2026-05-07 14:33 55.39112 10.82081 41119 ft 424 kts 39°
2026-05-07 14:34 55.43591 10.88823 41114 ft 423 kts 40°
2026-05-07 14:34 55.48042 10.95566 41112 ft 421 kts 40°
2026-05-07 14:35 55.52478 11.02296 41111 ft 420 kts 40°
2026-05-07 14:35 55.56895 11.09023 41109 ft 419 kts 40°
2026-05-07 14:36 55.61302 11.15754 41108 ft 418 kts 40°
2026-05-07 14:36 55.65704 11.22497 41108 ft 419 kts 40°
2026-05-07 14:37 55.70088 11.29235 41109 ft 420 kts 40°
2026-05-07 14:37 55.76738 11.39494 41116 ft 424 kts 40°
2026-05-07 14:38 55.81192 11.46393 41122 ft 426 kts 40°
2026-05-07 14:38 55.85648 11.53317 41123 ft 424 kts 40°
2026-05-07 14:39 55.90079 11.60224 41115 ft 423 kts 40°
2026-05-07 14:39 55.94498 11.67132 41112 ft 421 kts 40°
2026-05-07 14:40 55.98897 11.74032 41115 ft 420 kts 40°
2026-05-07 14:40 56.03277 11.80924 41126 ft 420 kts 40°
2026-05-07 14:41 56.07659 11.87841 41127 ft 421 kts 40°
2026-05-07 14:41 56.12062 11.94813 41128 ft 422 kts 40°
2026-05-07 14:42 56.16468 12.01812 41126 ft 424 kts 40°
2026-05-07 14:42 56.20887 12.08854 41110 ft 425 kts 40°
2026-05-07 14:43 56.25288 12.15889 40899 ft 431 kts 40°
2026-05-07 14:43 56.27548 12.19510 40334 ft 437 kts 40°
2026-05-07 14:43 56.29813 12.23146 39760 ft 435 kts 40°
2026-05-07 14:44 56.32061 12.26763 39185 ft 431 kts 40°
2026-05-07 14:44 56.34280 12.30338 38577 ft 425 kts 40°
2026-05-07 14:44 56.36464 12.33862 37997 ft 416 kts 40°
2026-05-07 14:44 56.38601 12.37313 37452 ft 407 kts 40°
2026-05-07 14:45 56.40689 12.40693 36916 ft 400 kts 40°
2026-05-07 14:45 56.42747 12.44026 36397 ft 395 kts 40°
2026-05-07 14:45 56.44784 12.47334 35877 ft 393 kts 40°
2026-05-07 14:45 56.46816 12.50635 35360 ft 392 kts 40°
2026-05-07 14:46 56.48843 12.53936 34846 ft 393 kts 39°
2026-05-07 14:46 56.50878 12.57251 34320 ft 395 kts 39°
2026-05-07 14:46 56.52919 12.60587 33756 ft 395 kts 39°
2026-05-07 14:46 56.54957 12.63919 33229 ft 394 kts 39°
2026-05-07 14:47 56.56995 12.67258 32706 ft 396 kts 39°
2026-05-07 14:47 56.59046 12.70620 32181 ft 398 kts 40°
2026-05-07 14:47 56.61105 12.74003 31655 ft 401 kts 40°
2026-05-07 14:47 56.63182 12.77419 31124 ft 404 kts 40°
2026-05-07 14:48 56.65230 12.80843 30592 ft 406 kts 43°
2026-05-07 14:48 56.67083 12.84754 30040 ft 410 kts 49°
2026-05-07 14:48 56.68904 12.88756 29476 ft 411 kts 48°
2026-05-07 14:48 56.70745 12.92739 28931 ft 412 kts 47°
2026-05-07 14:49 56.72604 12.96744 28386 ft 415 kts 48°
2026-05-07 14:49 56.74467 13.00798 27835 ft 418 kts 48°
2026-05-07 14:49 56.76333 13.04878 27220 ft 422 kts 48°
2026-05-07 14:49 56.78215 13.08986 26648 ft 421 kts 48°
2026-05-07 14:50 56.80091 13.13086 26079 ft 419 kts 48°
2026-05-07 14:50 56.81955 13.17165 25528 ft 417 kts 48°
2026-05-07 14:50 56.83802 13.21219 24961 ft 414 kts 48°
2026-05-07 14:50 56.85636 13.25251 24432 ft 412 kts 48°
2026-05-07 14:51 56.87465 13.29274 23888 ft 410 kts 48°
2026-05-07 14:51 56.89254 13.33222 23309 ft 407 kts 49°
2026-05-07 14:51 56.91049 13.37184 22769 ft 402 kts 49°
2026-05-07 14:51 56.92823 13.41111 22241 ft 398 kts 49°
2026-05-07 14:52 56.94576 13.44993 21722 ft 394 kts 48°
2026-05-07 14:52 56.96315 13.48854 21207 ft 391 kts 49°
2026-05-07 14:52 56.98043 13.52693 20676 ft 389 kts 49°
2026-05-07 14:52 56.99758 13.56512 20163 ft 386 kts 49°
2026-05-07 14:53 57.01460 13.60312 19655 ft 384 kts 49°
2026-05-07 14:53 57.03147 13.64076 19152 ft 380 kts 49°
2026-05-07 14:53 57.04820 13.67822 18652 ft 377 kts 49°
2026-05-07 14:53 57.06477 13.71531 18128 ft 374 kts 49°
2026-05-07 14:54 57.08113 13.75206 17628 ft 370 kts 49°
2026-05-07 14:54 57.09732 13.78846 17141 ft 366 kts 49°
2026-05-07 14:54 57.11337 13.82454 16659 ft 362 kts 49°
2026-05-07 14:54 57.12924 13.86034 16186 ft 360 kts 49°
2026-05-07 14:55 57.14482 13.89553 15724 ft 357 kts 49°
2026-05-07 14:55 57.16047 13.93091 15247 ft 356 kts 49°
2026-05-07 14:55 57.17607 13.96623 14776 ft 354 kts 49°
2026-05-07 14:55 57.19154 14.00133 14311 ft 352 kts 49°
2026-05-07 14:56 57.20695 14.03630 13840 ft 350 kts 49°
2026-05-07 14:56 57.22220 14.07100 13342 ft 346 kts 49°
2026-05-07 14:56 57.23727 14.10530 12889 ft 342 kts 49°
2026-05-07 14:56 57.25216 14.13931 12435 ft 338 kts 49°
2026-05-07 14:57 57.26693 14.17302 11989 ft 336 kts 49°
2026-05-07 14:57 57.28145 14.20626 11550 ft 326 kts 49°
2026-05-07 14:57 57.29528 14.23795 11136 ft 308 kts 50°
2026-05-07 14:57 57.30840 14.26807 10729 ft 295 kts 49°
2026-05-07 14:58 57.32113 14.29723 10348 ft 290 kts 50°
2026-05-07 14:58 57.33373 14.32621 9971 ft 289 kts 50°
2026-05-07 14:58 57.34628 14.35511 9570 ft 288 kts 50°
2026-05-07 14:58 57.35878 14.38392 9195 ft 286 kts 50°
2026-05-07 14:59 57.37122 14.41261 8811 ft 285 kts 50°
2026-05-07 14:59 57.38360 14.44122 8438 ft 284 kts 50°
2026-05-07 14:59 57.39590 14.46970 8063 ft 283 kts 50°
2026-05-07 14:59 57.40804 14.49778 7697 ft 282 kts 50°
2026-05-07 15:00 57.42044 14.52651 7320 ft 280 kts 50°
2026-05-07 15:00 57.43231 14.55409 6956 ft 276 kts 50°
2026-05-07 15:00 57.44423 14.58182 6598 ft 273 kts 50°
2026-05-07 15:00 57.45606 14.60929 6226 ft 271 kts 50°
2026-05-07 15:01 57.46775 14.63652 5865 ft 269 kts 51°
2026-05-07 15:01 57.47931 14.66351 5510 ft 263 kts 51°
2026-05-07 15:01 57.49039 14.68939 5167 ft 250 kts 50°
2026-05-07 15:01 57.50095 14.71410 4843 ft 238 kts 50°
2026-05-07 15:02 57.51110 14.73780 4523 ft 230 kts 50°
2026-05-07 15:02 57.52077 14.76052 4216 ft 217 kts 50°
2026-05-07 15:02 57.53002 14.78218 3946 ft 212 kts 50°
2026-05-07 15:02 57.53902 14.80324 3688 ft 202 kts 50°
2026-05-07 15:03 57.54743 14.82297 3418 ft 188 kts 49°
2026-05-07 15:03 57.55501 14.84085 3201 ft 156 kts 50°
2026-05-07 15:03 57.56107 14.85521 2933 ft 130 kts 49°
2026-05-07 15:03 57.56651 14.86802 2535 ft 124 kts 49°
2026-05-07 15:04 57.57165 14.88018 2284 ft 116 kts 49°
2026-05-07 15:04 57.57641 14.89079 2175 ft 105 kts 45°
2026-05-07 15:04 57.57942 14.90264 711 ft 112 kts 120°
2026-05-07 15:04 57.58374 14.90468 2692 ft 128 kts
2026-05-07 15:05 57.58548 14.89760 864 ft 209 kts 232°
2026-05-07 15:05 57.57625 14.88803 1550 ft 141 kts 176°
2026-05-07 15:05 57.56834 14.89820 1795 ft 154 kts 113°
2026-05-07 15:05 57.56908 14.91789 1977 ft 161 kts 56°
2026-05-07 15:06 57.57806 14.92914 2176 ft 164 kts 14°
2026-05-07 15:06 57.58913 14.92976 2112 ft 162 kts 339°
2026-05-07 15:06 57.59761 14.92068 1943 ft 128 kts 346°
2026-05-07 15:06 57.60684 14.92069 1779 ft 124 kts
2026-05-07 15:07 57.61526 14.92256 1643 ft 121 kts
2026-05-07 15:07 57.62333 14.92507 1517 ft 116 kts
2026-05-07 15:07 57.63118 14.92779 1370 ft 113 kts
2026-05-07 15:07 57.63879 14.93051 1230 ft 111 kts
2026-05-07 15:08 57.64634 14.93328 1082 ft 109 kts 11°
2026-05-07 15:08 57.65384 14.93607 949 ft 111 kts 10°
2026-05-07 15:08 57.66149 14.93896 812 ft 114 kts 10°
2026-05-07 15:08 57.66891 14.94169 703 ft 98 kts 11°
2026-05-07 15:09 57.67405 14.94350 703 ft 32 kts
2026-05-07 15:09 57.67439 14.94370 703 ft 0 kts 56°
2026-05-07 15:09 57.67439 14.94372 703 ft 0 kts 65°
2026-05-07 15:10 57.67439 14.94377 703 ft 1 kts 103°
2026-05-07 15:10 57.67435 14.94382 697 ft 1 kts 157°
2026-05-07 15:11 57.67374 14.94364 702 ft 24 kts 189°
2026-05-07 15:11 57.67178 14.94299 701 ft 29 kts 172°
2026-05-07 15:11 57.67151 14.94372 702 ft 0 kts